| time (UTC) | temp F | wind direction | speed MPH | gust MPH | rain 1hr in | rain 24hr in | rain mn in | humidity % | barometer mb |
| 20260504020437 | 65 | 0.0 | 0.0 | 0.00 | 0.00 | 0.00 | 985.3 | ||
| 20260504015437 | 65 | 0.0 | 0.0 | 0.00 | 0.00 | 0.00 | 985.4 | ||
| 20260504014437 | 65 | 0.0 | 0.0 | 0.00 | 0.00 | 0.00 | 985.3 | ||
| 20260504013407 | 65 | 0.0 | 0.0 | 0.00 | 0.00 | 0.00 | 985.5 | ||
| 20260504012407 | 65 | 0.0 | 0.0 | 0.00 | 0.00 | 0.00 | 985.4 | ||
| 20260504011337 | 65 | 0.0 | 0.0 | 0.00 | 0.00 | 0.00 | 985.4 | ||
| 20260504010307 | 65 | 0.0 | 0.0 | 0.00 | 0.00 | 0.00 | 985.4 | ||
| 20260504005307 | 65 | 0.0 | 0.0 | 0.00 | 0.00 | 0.00 | 985.4 | ||
| 20260504004237 | 65 | 0.0 | 0.0 | 0.00 | 0.00 | 0.00 | 985.3 | ||
| 20260504003207 | 65 | 0.0 | 0.0 | 0.00 | 0.00 | 0.00 | 985.4 | ||
| 20260504002207 | 65 | 0.0 | 0.0 | 0.00 | 0.00 | 0.00 | 985.4 | ||
| 20260504001207 | 65 | 0.0 | 0.0 | 0.00 | 0.00 | 0.00 | 985.4 | ||
| 20260504000207 | 65 | 0.0 | 0.0 | 0.00 | 0.00 | 0.00 | 985.5 | ||
| 20260503235207 | 66 | 0.0 | 0.0 | 0.00 | 0.00 | 0.00 | 985.5 | ||
| 20260503234137 | 66 | 0.0 | 0.0 | 0.00 | 0.00 | 0.00 | 985.5 | ||
| 20260503233137 | 66 | 0.0 | 0.0 | 0.00 | 0.00 | 0.00 | 985.4 | ||
| 20260503232107 | 66 | 0.0 | 0.0 | 0.00 | 0.00 | 0.00 | 985.4 | ||
| 20260503231037 | 66 | 0.0 | 0.0 | 0.00 | 0.00 | 0.00 | 985.5 | ||
| 20260503230037 | 66 | 0.0 | 0.0 | 0.00 | 0.00 | 0.00 | 985.5 | ||
| 20260503225007 | 66 | 0.0 | 0.0 | 0.00 | 0.00 | 0.00 | 985.6 | ||
| 20260503223937 | 66 | 0.0 | 0.0 | 0.00 | 0.00 | 0.00 | 985.6 | ||
| 20260503222936 | 66 | 0.0 | 0.0 | 0.00 | 0.00 | 0.00 | 985.8 | ||
| 20260503221937 | 66 | 0.0 | 0.0 | 0.00 | 0.00 | 0.00 | 985.7 | ||
| 20260503220907 | 66 | 0.0 | 0.0 | 0.00 | 0.00 | 0.00 | 985.7 | ||
| 20260503215837 | 66 | 0.0 | 0.0 | 0.00 | 0.00 | 0.00 | 985.7 | ||
| 20260503214837 | 66 | 0.0 | 0.0 | 0.00 | 0.00 | 0.00 | 985.7 | ||
| 20260503213806 | 66 | 0.0 | 0.0 | 0.00 | 0.00 | 0.00 | 985.7 | ||
| 20260503212736 | 66 | 0.0 | 0.0 | 0.00 | 0.00 | 0.00 | 985.8 | ||
| 20260503211736 | 66 | 0.0 | 0.0 | 0.00 | 0.00 | 0.00 | 985.8 | ||
| 20260503210706 | 66 | 0.0 | 0.0 | 0.00 | 0.00 | 0.00 | 985.8 | ||
| 20260503205636 | 67 | 0.0 | 0.0 | 0.00 | 0.00 | 0.00 | 985.8 | ||
| 20260503204606 | 67 | 0.0 | 0.0 | 0.00 | 0.00 | 0.00 | 985.8 | ||
| 20260503203606 | 67 | 0.0 | 0.0 | 0.00 | 0.00 | 0.00 | 985.8 | ||
| 20260503202536 | 67 | 0.0 | 0.0 | 0.00 | 0.00 | 0.00 | 985.8 | ||
| 20260503201536 | 67 | 0.0 | 0.0 | 0.00 | 0.00 | 0.00 | 985.8 | ||
| 20260503200536 | 68 | 0.0 | 0.0 | 0.00 | 0.00 | 0.00 | 985.8 | ||
| 20260503195536 | 68 | 0.0 | 0.0 | 0.00 | 0.00 | 0.00 | 985.7 | ||
| 20260503194536 | 68 | 0.0 | 0.0 | 0.00 | 0.00 | 0.00 | 985.8 | ||
| 20260503193536 | 68 | 0.0 | 0.0 | 0.00 | 0.00 | 0.00 | 985.7 | ||
| 20260503192506 | 68 | 0.0 | 0.0 | 0.00 | 0.00 | 0.00 | 985.8 | ||
| 20260503191506 | 69 | 0.0 | 0.0 | 0.00 | 0.00 | 0.00 | 985.8 | ||
| 20260503190436 | 69 | 0.0 | 0.0 | 0.00 | 0.00 | 0.00 | 985.6 | ||
| 20260503185436 | 69 | 0.0 | 0.0 | 0.00 | 0.00 | 0.00 | 985.7 | ||
| 20260503184406 | 69 | 0.0 | 0.0 | 0.00 | 0.00 | 0.00 | 985.6 | ||
| 20260503183406 | 70 | 0.0 | 0.0 | 0.00 | 0.00 | 0.00 | 985.6 | ||
| 20260503182406 | 70 | 0.0 | 0.0 | 0.00 | 0.00 | 0.00 | 985.6 | ||
| 20260503181336 | 70 | 0.0 | 0.0 | 0.00 | 0.00 | 0.00 | 985.6 | ||
| 20260503180336 | 70 | 0.0 | 0.0 | 0.00 | 0.00 | 0.00 | 985.5 | ||
| 20260503175336 | 71 | 0.0 | 0.0 | 0.00 | 0.00 | 0.00 | 985.4 | ||
| 20260503174306 | 71 | 0.0 | 0.0 | 0.00 | 0.00 | 0.00 | 985.4 | ||
| 20260503173236 | 71 | 0.0 | 0.0 | 0.00 | 0.00 | 0.00 | 985.4 | ||
| 20260503172206 | 72 | 0.0 | 0.0 | 0.00 | 0.00 | 0.00 | 985.3 | ||
| 20260503171136 | 72 | 0.0 | 0.0 | 0.00 | 0.00 | 0.00 | 985.3 | ||
| 20260503170136 | 72 | 0.0 | 0.0 | 0.00 | 0.00 | 0.00 | 985.2 | ||
| 20260503150836 | 77 | 0.0 | 0.0 | 0.00 | 0.00 | 0.00 | 985.3 | ||
| 20260503130536 | 76 | 0.0 | 0.0 | 0.00 | 0.00 | 0.00 | 986.7 | ||
| 20260503110406 | 70 | 0.0 | 0.0 | 0.00 | 0.00 | 0.00 | 988.0 | ||
| 20260503100136 | 68 | 0.0 | 0.0 | 0.00 | 0.00 | 0.00 | 988.9 | ||
| 20260503080936 | 66 | 0.0 | 0.0 | 0.00 | 0.00 | 0.00 | 989.9 | ||
| 20260503071836 | 66 | 0.0 | 0.0 | 0.00 | 0.00 | 0.00 | 990.1 | ||
| 20260503070805 | 65 | 0.0 | 0.0 | 0.00 | 0.00 | 0.00 | 990.1 | ||
| 20260503054535 | 64 | 0.0 | 0.0 | 0.00 | 0.00 | 0.00 | 990.6 | ||
| 20260503053535 | 64 | 0.0 | 0.0 | 0.00 | 0.00 | 0.00 | 990.7 | ||
| 20260503052505 | 64 | 0.0 | 0.0 | 0.00 | 0.00 | 0.00 | 990.7 | ||
| 20260503051505 | 64 | 0.0 | 0.0 | 0.00 | 0.00 | 0.00 | 990.8 | ||
| 20260503050435 | 64 | 0.0 | 0.0 | 0.00 | 0.00 | 0.00 | 991.0 | ||
| 20260503045435 | 64 | 0.0 | 0.0 | 0.00 | 0.00 | 0.00 | 991.0 | ||
| 20260503044435 | 64 | 0.0 | 0.0 | 0.00 | 0.00 | 0.00 | 991.0 | ||
| 20260503043405 | 64 | 0.0 | 0.0 | 0.00 | 0.00 | 0.00 | 991.0 | ||
| 20260503042335 | 64 | 0.0 | 0.0 | 0.00 | 0.00 | 0.00 | 991.0 | ||
| 20260503041305 | 64 | 0.0 | 0.0 | 0.00 | 0.00 | 0.00 | 991.0 | ||
| 20260503040235 | 64 | 0.0 | 0.0 | 0.00 | 0.00 | 0.00 | 990.9 | ||
| 20260503035235 | 64 | 0.0 | 0.0 | 0.00 | 0.00 | 0.00 | 990.9 | ||
| 20260503034235 | 64 | 0.0 | 0.0 | 0.00 | 0.00 | 0.00 | 991.0 | ||
| 20260503033235 | 64 | 0.0 | 0.0 | 0.00 | 0.00 | 0.00 | 991.0 | ||
| 20260503032205 | 64 | 0.0 | 0.0 | 0.00 | 0.00 | 0.00 | 991.0 | ||
| 20260503031205 | 64 | 0.0 | 0.0 | 0.00 | 0.00 | 0.00 | 990.9 | ||
| 20260503030135 | 64 | 0.0 | 0.0 | 0.00 | 0.00 | 0.00 | 991.1 | ||
| 20260503025105 | 64 | 0.0 | 0.0 | 0.00 | 0.00 | 0.00 | 991.1 | ||
| 20260503024105 | 64 | 0.0 | 0.0 | 0.00 | 0.00 | 0.00 | 990.9 | ||
| 20260503023035 | 64 | 0.0 | 0.0 | 0.00 | 0.00 | 0.00 | 990.9 | ||
| 20260503022005 | 64 | 0.0 | 0.0 | 0.00 | 0.00 | 0.00 | 990.7 |